Wind_Speed
37 39 40 41 42 43 43 43 44 45 45 45 46 46 46 46 46 47 49 50 52 53 54 55 55 55 55 54 53 52 50 48 48 48 48 48 48 48 47 45 43 41 41
41 41 42 42 42 41 40 40 41 42 43 44 45 45 46 46 47 48 49 50 51 52 53 54 55 56 56 55 54 53 52 51 50 50 50 50 50 50 50 49 46 44 43
41 41 40 40 40 39 38 39 39 40 41 42 43 44 45 46 47 48 50 50 51 52 53 54 55 56 56 56 55 54 53 52 52 52 52 52 51 51 51 51 49 47 45
39 38 37 36 37 37 37 37 38 39 40 41 43 44 45 46 47 48 50 51 52 53 54 55 56 56 56 56 56 56 55 54 54 54 53 53 52 52 51 51 51 48 47
36 35 34 35 35 35 36 38 39 41 42 44 46 47 48 49 51 52 53 54 56 57 57 59 60 60 59 59 59 59 58 57 55 54 54 53 52 52 51 51 50 49 48
34 34 34 35 37 38 39 42 44 45 47 49 51 51 51 52 53 54 56 58 59 60 62 63 63 64 64 63 63 62 61 59 57 55 54 54 53 52 51 50 49 48 48
35 36 37 39 41 42 44 46 49 50 52 55 57 57 57 57 58 58 60 61 62 62 64 65 66 66 66 66 66 65 63 61 59 57 56 55 54 52 51 50 48 48 48
38 40 41 43 45 47 49 51 54 56 57 59 61 63 63 61 59 60 61 62 62 63 63 64 64 65 65 66 66 66 65 63 61 59 57 56 54 53 50 48 47 47 47
42 44 46 48 50 52 54 55 57 59 60 60 62 65 67 67 66 63 63 63 64 65 65 66 66 66 66 66 65 64 64 63 61 59 58 56 54 52 49 47 46 46 47
46 48 50 52 53 55 56 57 59 61 62 63 65 67 69 72 73 73 71 71 70 70 69 69 69 68 68 67 66 64 63 62 61 60 58 56 54 52 49 48 47 47 47
49 51 52 54 56 58 59 61 63 65 67 69 71 73 75 77 80 83 82 81 81 80 79 77 74 72 69 69 68 67 66 65 65 63 61 59 57 55 52 51 49 48 49
51 53 56 59 61 63 66 68 70 73 75 77 79 81 84 86 87 90 91 90 90 88 87 85 83 79 75 72 71 70 69 68 68 67 65 63 61 59 56 54 53 51 51
55 58 61 64 67 70 72 75 77 79 81 83 85 88 90 93 95 96 98 99 98 95 93 90 87 85 81 78 74 72 72 71 70 69 67 66 64 62 59 57 55 54 52
61 64 67 70 73 75 78 80 82 84 86 89 91 94 96 98 99 99 99 101 102 100 96 92 87 83 81 79 78 76 75 73 73 72 71 68 66 64 63 60 58 55 54
68 71 74 76 78 80 82 84 87 89 92 95 97 99 100 101 100 98 96 93 93 96 95 88 83 79 77 76 75 76 75 75 74 74 74 72 69 66 64 61 59 56 55
73 76 78 81 83 85 87 90 92 95 97 99 101 102 101 99 96 91 86 82 80 81 83 77 73 70 68 68 68 71 73 73 73 73 74 75 73 71 68 65 61 58 56
78 80 82 84 86 89 92 94 97 99 100 101 101 99 96 92 86 81 76 72 71 73 75 70 67 65 64 65 65 67 69 70 70 70 71 72 72 71 69 67 65 62 59
81 83 85 87 90 92 95 97 99 100 100 99 96 92 87 82 77 73 71 70 70 72 74 73 68 66 65 65 66 66 66 67 67 67 67 67 67 68 68 67 66 65 63
82 85 88 90 93 95 98 99 99 98 96 92 89 84 81 78 76 74 74 74 75 75 77 79 76 72 70 68 69 68 67 66 65 64 64 63 63 64 65 66 66 66 65
85 88 91 94 96 97 98 97 95 92 88 85 83 81 81 81 81 82 81 82 83 83 83 85 84 81 77 74 74 73 70 67 65 63 62 62 61 62 63 64 65 65 65
89 92 94 96 96 95 93 91 89 86 85 84 83 84 86 87 88 90 90 90 90 91 90 90 89 86 82 78 77 75 74 69 65 64 63 61 61 61 60 61 63 64 65
91 93 94 94 92 90 88 87 88 88 88 89 89 89 90 91 92 93 94 94 94 94 93 91 88 85 80 75 73 71 71 69 64 61 63 60 60 59 59 60 61 62 63
92 92 91 89 87 86 86 88 90 92 92 91 90 89 87 86 87 88 87 87 86 84 84 83 80 75 70 65 63 61 62 62 60 58 61 58 58 57 57 59 59 59 60
90 89 87 85 84 85 88 91 92 90 87 83 80 78 76 74 73 74 73 71 69 65 64 64 63 61 58 54 51 50 51 53 54 54 57 56 56 57 57 57 57 57 56
85 83 82 83 84 87 90 90 88 83 78 73 70 69 68 65 63 62 61 58 53 49 47 47 47 47 46 43 41 40 40 43 44 46 51 54 54 55 55 55 54 54 54
82 80 80 84 88 90 88 85 81 77 73 69 65 62 60 58 55 53 51 48 43 38 34 32 32 33 33 32 31 31 32 33 35 36 40 46 48 50 51 50 50 50 49
Wind_Direction
288 289 289 289 288 287 287 287 287 288 289 290 291 291 292 292 291 290 289 289 288 288 289 289 289 290 290 290 291 291 291 291 291 292 291 291 292 291 291 290 288 287 285
290 290 290 291 290 289 289 289 288 288 289 289 290 290 290 290 290 290 290 289 289 288 288 288 288 288 289 289 289 289 290 290 290 290 290 289 289 289 288 288 287 287 285
290 290 290 290 289 288 288 288 288 288 289 289 289 289 289 289 289 289 289 289 289 288 288 287 287 287 287 288 288 289 289 290 290 289 289 288 287 287 287 287 287 286 284
290 290 289 288 287 288 289 290 290 290 290 290 290 290 290 290 289 288 288 288 288 287 287 287 287 287 287 288 288 288 288 288 288 288 287 286 286 285 284 285 285 284 282
291 290 289 290 291 291 292 292 292 292 292 292 291 291 292 292 291 291 291 290 289 289 288 288 288 288 287 287 287 287 287 286 286 285 285 284 284 283 283 282 283 281 280
293 292 292 293 293 293 293 293 293 293 293 292 292 292 292 292 292 292 291 291 290 290 289 289 288 288 288 287 287 286 285 285 284 283 282 281 281 281 281 280 279 277 276
293 293 293 293 293 293 293 293 293 294 294 294 294 293 293 293 293 292 291 291 290 290 290 289 288 287 287 286 285 285 284 283 282 281 280 279 278 278 278 277 275 272 272
292 292 293 293 294 295 295 296 296 296 297 297 296 295 294 293 293 293 292 292 291 290 290 289 288 287 286 285 284 282 282 282 281 280 278 277 275 275 275 275 271 268 267
293 294 295 296 297 297 298 298 298 298 298 297 297 297 297 296 294 293 292 291 290 289 288 287 287 286 286 285 284 282 280 279 278 277 276 274 273 273 272 271 268 265 264
295 296 297 298 298 298 298 298 298 298 297 297 296 296 296 296 296 294 293 292 290 289 287 286 284 283 282 281 281 279 277 276 275 274 274 273 272 271 270 269 266 262 262
297 298 299 298 298 298 298 298 298 298 298 297 297 296 296 296 295 294 293 292 291 291 289 286 284 281 278 276 275 274 272 271 271 271 271 270 270 269 268 266 264 261 260
301 301 301 301 301 300 300 300 299 299 299 298 298 297 297 296 295 294 293 292 291 290 288 287 285 281 277 273 270 268 267 267 267 268 268 268 268 267 267 265 264 260 258
303 303 303 303 302 301 300 300 299 299 299 299 299 298 298 297 296 296 295 293 292 290 288 286 284 281 278 274 270 266 264 263 263 263 265 267 266 265 265 265 264 261 257
305 304 304 303 302 301 301 300 300 299 299 299 299 299 299 298 298 297 296 295 293 291 288 286 283 280 277 274 272 268 264 261 259 259 260 262 263 264 263 263 262 260 256
306 306 305 304 303 303 302 301 301 301 301 301 300 300 299 299 298 297 296 294 293 291 289 287 283 280 276 272 270 267 265 262 259 258 256 257 258 260 261 261 260 258 256
307 307 306 305 304 303 303 302 302 302 301 301 300 300 299 298 297 296 295 293 291 290 289 288 285 281 276 272 268 266 264 262 260 259 257 256 256 255 256 256 256 256 254
307 306 306 305 304 303 303 303 302 302 301 301 301 300 299 298 296 294 293 291 290 289 289 289 287 284 281 277 272 268 264 262 261 259 258 256 255 254 253 253 252 252 251
307 306 306 305 304 304 304 303 303 303 302 302 301 299 298 296 294 293 291 290 289 288 288 289 288 286 284 281 277 272 268 265 262 259 257 256 254 252 251 250 250 250 249
307 306 306 306 306 305 305 305 304 304 303 302 300 298 296 294 293 291 290 289 288 287 288 288 289 288 285 282 278 275 271 268 264 260 258 255 253 252 251 250 249 249 248
308 307 307 308 308 307 307 306 306 304 303 301 299 297 295 293 291 290 288 287 286 286 286 287 287 287 285 282 279 275 271 267 264 262 259 256 253 252 251 250 249 248 248
309 309 309 310 310 309 308 307 306 304 303 301 298 296 294 292 290 289 287 286 285 285 285 285 286 285 284 281 277 274 270 266 262 260 257 255 254 252 251 250 250 249 248
311 311 311 312 311 310 309 308 307 305 304 302 300 297 294 292 290 288 287 286 285 285 285 285 285 285 284 282 278 273 269 265 260 257 256 253 253 251 250 250 251 251 250
313 313 313 313 312 311 310 309 308 307 306 305 303 301 298 296 293 290 288 286 285 285 285 285 285 286 285 282 278 273 268 263 258 253 252 250 250 250 249 250 251 252 251
314 314 314 313 313 313 312 311 311 310 310 309 308 307 306 303 300 297 293 290 288 286 285 285 286 287 286 283 279 274 267 261 256 251 249 247 246 247 247 248 250 250 251
315 314 314 314 315 315 315 315 314 314 313 314 314 313 311 308 305 302 299 297 294 291 289 288 288 286 285 283 279 274 268 261 254 247 246 246 244 244 244 245 247 248 248
315 315 315 317 318 318 318 317 316 316 316 316 317 316 314 312 310 308 306 305 302 299 295 290 286 285 284 283 280 276 271 264 258 248 243 244 243 243 242 242 243 243 243
Height
5813 5811 5809 5807 5805 5802 5800 5798 5796 5793 5791 5789 5786 5784 5781 5779 5777 5774 5772 5770 5767 5764 5761 5758 5755 5752 5749 5746 5743 5741 5738 5736 5734 5731 5729 5726 5723 5721 5719 5717 5715 5713 5712
5806 5804 5802 5799 5796 5794 5791 5789 5787 5784 5781 5779 5776 5773 5771 5768 5766 5764 5761 5759 5756 5753 5750 5747 5744 5741 5738 5735 5732 5730 5727 5725 5723 5720 5717 5715 5712 5710 5707 5705 5703 5701 5699
5799 5797 5794 5791 5788 5785 5783 5780 5777 5775 5772 5769 5766 5763 5761 5758 5756 5753 5750 5747 5744 5741 5738 5735 5732 5729 5727 5724 5722 5719 5716 5713 5711 5709 5706 5703 5701 5698 5696 5693 5691 5689 5687
5792 5790 5787 5783 5780 5777 5775 5772 5768 5766 5763 5760 5757 5754 5751 5748 5744 5741 5738 5735 5731 5728 5725 5722 5720 5717 5715 5712 5709 5706 5704 5702 5699 5696 5693 5691 5688 5686 5684 5682 5680 5678 5675
5785 5782 5779 5776 5773 5771 5767 5764 5760 5757 5754 5750 5747 5744 5741 5737 5733 5729 5726 5722 5718 5715 5712 5709 5706 5703 5700 5698 5695 5692 5690 5688 5686 5683 5681 5678 5676 5674 5671 5670 5668 5666 5664
5778 5775 5773 5769 5766 5763 5759 5755 5751 5747 5743 5739 5735 5732 5730 5726 5722 5718 5713 5709 5705 5701 5697 5694 5691 5688 5684 5681 5678 5676 5674 5673 5671 5669 5666 5664 5662 5661 5659 5657 5656 5654 5652
5771 5768 5765 5761 5757 5753 5749 5745 5740 5736 5732 5726 5721 5718 5717 5713 5709 5705 5700 5695 5691 5687 5683 5679 5675 5672 5669 5665 5662 5659 5657 5656 5654 5653 5651 5649 5648 5646 5645 5644 5643 5641 5639
5763 5759 5755 5752 5747 5743 5738 5733 5728 5723 5719 5713 5706 5701 5700 5701 5697 5691 5685 5680 5676 5671 5667 5663 5658 5655 5651 5648 5645 5642 5639 5638 5637 5636 5634 5633 5632 5631 5630 5629 5628 5627 5626
5753 5750 5746 5741 5737 5732 5727 5722 5716 5711 5706 5701 5693 5686 5680 5678 5677 5677 5672 5667 5661 5656 5652 5646 5642 5637 5633 5630 5628 5625 5622 5620 5618 5617 5616 5616 5615 5615 5614 5613 5612 5612 5611
5744 5740 5736 5731 5726 5721 5715 5710 5704 5698 5692 5687 5681 5673 5665 5658 5653 5652 5653 5649 5645 5640 5635 5630 5625 5620 5615 5611 5609 5607 5604 5601 5599 5599 5598 5598 5598 5598 5598 5597 5597 5596 5596
5735 5731 5726 5720 5715 5709 5703 5697 5690 5684 5677 5670 5664 5657 5650 5642 5633 5626 5627 5627 5622 5619 5614 5610 5605 5601 5596 5591 5589 5587 5585 5582 5580 5579 5579 5579 5579 5580 5580 5580 5580 5580 5580
5725 5719 5714 5708 5701 5695 5688 5681 5674 5667 5659 5652 5644 5636 5628 5621 5613 5602 5597 5598 5597 5597 5590 5586 5582 5578 5574 5570 5567 5565 5563 5561 5560 5559 5558 5559 5560 5561 5561 5562 5562 5563 5563
5714 5708 5701 5694 5687 5680 5673 5665 5657 5649 5641 5632 5624 5615 5605 5595 5586 5576 5567 5563 5563 5567 5564 5562 5555 5550 5548 5545 5543 5542 5540 5539 5538 5538 5537 5538 5540 5541 5542 5542 5544 5545 5546
5702 5695 5688 5680 5672 5664 5656 5647 5638 5629 5620 5611 5601 5591 5581 5571 5559 5548 5537 5528 5525 5529 5532 5533 5528 5523 5519 5515 5515 5514 5513 5514 5514 5514 5515 5516 5517 5519 5521 5523 5524 5526 5528
5687 5679 5671 5663 5654 5645 5636 5626 5617 5607 5597 5587 5576 5565 5554 5544 5533 5522 5510 5499 5489 5485 5494 5503 5499 5496 5490 5487 5487 5484 5484 5486 5487 5488 5490 5492 5494 5496 5499 5502 5504 5507 5509
5671 5662 5654 5644 5635 5625 5615 5605 5595 5585 5574 5563 5551 5540 5529 5518 5508 5498 5488 5478 5467 5455 5453 5466 5467 5467 5463 5461 5460 5458 5457 5457 5459 5462 5464 5466 5469 5472 5476 5479 5482 5486 5489
5654 5645 5635 5625 5615 5605 5594 5583 5572 5561 5550 5538 5526 5515 5504 5493 5484 5475 5467 5459 5450 5439 5429 5436 5440 5441 5439 5437 5436 5434 5432 5432 5434 5437 5439 5441 5444 5448 5452 5455 5460 5464 5468
5636 5626 5616 5605 5594 5583 5571 5559 5548 5536 5524 5512 5501 5490 5479 5469 5461 5453 5446 5439 5431 5423 5412 5410 5417 5418 5417 5414 5411 5410 5409 5409 5411 5414 5415 5417 5420 5424 5428 5432 5437 5442 5447
5618 5607 5596 5584 5573 5560 5547 5534 5522 5510 5498 5486 5475 5465 5455 5446 5439 5432 5424 5417 5410 5403 5394 5386 5389 5393 5393 5391 5386 5386 5386 5387 5389 5391 5392 5395 5398 5402 5406 5411 5415 5420 5425
5599 5587 5575 5562 5548 5535 5521 5508 5496 5485 5474 5463 5453 5442 5432 5423 5414 5407 5400 5393 5385 5379 5373 5366 5363 5364 5366 5366 5360 5359 5361 5364 5367 5369 5370 5374 5377 5381 5385 5390 5395 5400 5404
5578 5565 5553 5539 5524 5509 5496 5482 5471 5461 5451 5441 5431 5420 5409 5398 5387 5378 5370 5365 5357 5351 5346 5341 5337 5335 5336 5336 5333 5331 5331 5338 5344 5346 5348 5354 5356 5361 5366 5370 5374 5379 5384
5557 5543 5529 5515 5501 5485 5472 5459 5445 5436 5426 5414 5404 5394 5382 5370 5358 5349 5340 5332 5326 5320 5315 5311 5309 5306 5306 5305 5303 5302 5303 5309 5318 5326 5324 5332 5336 5342 5347 5351 5355 5359 5364
5535 5521 5506 5492 5479 5465 5451 5438 5424 5411 5399 5386 5373 5361 5350 5339 5326 5315 5309 5303 5299 5292 5285 5280 5280 5279 5278 5277 5276 5277 5278 5281 5290 5300 5302 5311 5317 5322 5328 5331 5336 5341 5346
5514 5500 5486 5472 5460 5447 5431 5416 5401 5388 5374 5361 5347 5333 5321 5311 5299 5286 5279 5276 5273 5270 5263 5259 5257 5255 5254 5254 5253 5254 5256 5260 5268 5276 5281 5288 5298 5303 5309 5314 5319 5325 5330
5494 5481 5468 5453 5440 5427 5410 5393 5376 5364 5353 5342 5330 5316 5301 5290 5280 5268 5259 5255 5253 5251 5247 5244 5241 5238 5236 5236 5236 5237 5239 5242 5249 5258 5263 5269 5278 5284 5291 5298 5304 5309 5315
5475 5463 5451 5435 5419 5404 5389 5372 5356 5344 5334 5325 5315 5303 5289 5276 5265 5255 5246 5240 5237 5235 5234 5232 5229 5226 5225 5224 5225 5225 5226 5229 5234 5243 5249 5253 5261 5267 5275 5283 5288 5294 5300